This is the latest recevied weather packets stored in our database for station/object KK4EQF-12. If no packets are shown the sender has not sent any weather packets the latest 1 day(s).
| Time | Temp. | Humidity | Pressure | Rain* | Wind** | Luminosity | Snow |
|---|---|---|---|---|---|---|---|
| 1778006966 | 26.11° C | 100% | 1012.3 hPa | 0 mm | 1.34 m/s, 215° | - | - |
| 1778006665 | 26.67° C | 3% | 1012.3 hPa | 0 mm | 1.34 m/s, 199° | - | - |
| 1778006365 | 26.67° C | 2% | 1012.4 hPa | 0 mm | 1.34 m/s, 222° | - | - |
| 1778006065 | 26.67° C | 4% | 1012.4 hPa | 0 mm | 1.34 m/s, 230° | - | - |
| 1778005765 | 26.67° C | 100% | 1012.4 hPa | 0 mm | 1.34 m/s, 188° | - | - |
| 1778005464 | 26.11° C | 100% | 1012.6 hPa | 0 mm | 1.34 m/s, 255° | - | - |
| 1778005164 | 26.67° C | 4% | 1012.6 hPa | 0 mm | 1.34 m/s, 228° | - | - |
| 1778004864 | 26.67° C | 2% | 1012.6 hPa | 0 mm | 1.34 m/s, 210° | - | - |
| 1778004565 | 26.67° C | 6% | 1012.7 hPa | 0 mm | 1.34 m/s, 229° | - | - |
| 1778004263 | 26.67° C | 100% | 1012.7 hPa | 0 mm | 1.34 m/s, 239° | - | - |
| 1778003963 | 26.11° C | 1% | 1012.7 hPa | 0 mm | 1.34 m/s, 186° | - | - |
| 1778003663 | 26.11° C | 100% | 1012.9 hPa | 0 mm | 1.34 m/s, 222° | - | - |
| 1778003362 | 26.11° C | 7% | 1012.9 hPa | 0 mm | 1.34 m/s, 228° | - | - |
| 1778003062 | 26.11° C | 7% | 1012.9 hPa | 0 mm | 1.34 m/s, 188° | - | - |
| 1778002762 | 26.11° C | 7% | 1012.9 hPa | 0 mm | 0.89 m/s, 212° | - | - |
| 1778002461 | 26.11° C | 12% | 1012.9 hPa | 0 mm | 1.34 m/s, 162° | - | - |
| 1778002161 | 26.11° C | 12% | 1012.9 hPa | 0 mm | 1.34 m/s, 200° | - | - |
| 1778001861 | 26.11° C | 14% | 1013 hPa | 0 mm | 1.34 m/s, 176° | - | - |
| 1778001560 | 26.11° C | 6% | 1013 hPa | 0 mm | 1.34 m/s, 179° | - | - |
| 1778001260 | 26.11° C | 12% | 1013 hPa | 0 mm | 1.34 m/s, 158° | - | - |
| 1778000960 | 26.11° C | 11% | 1013.2 hPa | 0 mm | 1.34 m/s, 193° | - | - |
| 1778000660 | 26.11° C | 10% | 1013.2 hPa | 0 mm | 1.34 m/s, 221° | - | - |
| 1778000359 | 26.67° C | 14% | 1013.2 hPa | 0 mm | 0.89 m/s, 211° | - | - |
| 1778000059 | 26.67° C | 20% | 1013.2 hPa | 0 mm | 0.89 m/s, 250° | - | - |
| 1777999759 | 27.22° C | 27% | 1013.2 hPa | 0 mm | 0.89 m/s, 270° | - | - |
* Rain latest hour (hover to see other rain measurements)
** Current wind speed in m/s (hover to see current wind gust speed)